sat.trackr.live / text

‹ back to catalog

STARLINK-30320

NORAD 57678 · 2023-124R

PAYLOAD ACTIVE UNKNOWN

§ Identity

Operator
Country
US
Launch date
2023-08-22
Launch site
AFWTR
Launch vehicle
Mass (kg)
RCS (m²)

Purposes: comms

External: N2YO · Heavens-Above · Gunter

§ Orbital elements

Epoch: 2026-09-20T13:10:55.202592Z

Period
93.85 min
Inclination
53.1608°
Eccentricity
0.0001636
Mean motion
15.34392503 rev/d
Perigee alt
461.6 km
Apogee alt
463.8 km
Semi-major
6,840.9 km
B*
-6.2211e-5
RAAN
5.2955°
Arg perigee
87.4787°
Mean anomaly
272.6403°
Rev number
17,363

§ Raw data

STARLINK-303201 57678U 23124R   26263.54925003 -.00002477  00000+0 -62211-4 0  99992 57678  53.1608   5.2955 0001636  87.4787 272.6403 15.34392503173630

JSON: /api/v1/satellites/57678 · /tle

For live sub-satellite position, see the globe view (requires WebGL).

§ Visibility from observer

Set your observer location to see the next 7 days of passes ≥ 10°. The values pass through the URL so the page stays shareable.

No JS? Fill the form by hand. The geolocation button needs JavaScript.